Location: Asbacherhof
(48.8543°N, 10.7903°E)
Time: 21:35:01
(UTC+00:00)

USA 267 - Pass Details

Date: 26 May 2022
Orbit: 1101 x 1106 km, 123.0° (Epoch: 28 June)

Event Time Altitude Azimuth Distance (km) Brightness Sun altitude
Exits shadow 01:02:05 20° 228° (SW) 2,274 4.4 -16.0°
Maximum altitude 01:02:46 21° 236° (SW) 2,258 4.4 -16.0°
Drops below altitude 10° 01:07:29 10° 283° (WNW) 2,963 5.4 -15.6°
Sets 01:10:44 0° 299° (WNW) 3,925 6.2 -15.4°
